Regional Weather Roundup
Issued by NWS

Home | Current Version | Previous Version | Text Only | Print | Product List | Glossary Off
Versions: 1 2 3 4 5 6 7 8 9 10 11 12 13 14 15 16 17 18 19 20 21 22 23 24 25 26 27 28

000
ASUS45 KBOU 202010
RWRCO

WEATHER ROUNDUP FOR COLORADO
NATIONAL WEATHER SERVICE DENVER/BOULDER CO
100 PM MST MON NOV 20 2017

NOTE: "FAIR" INDICATES FEW OR NO CLOUDS BELOW 12000 FEET WITH NO
SIGNIFICANT WEATHER AND/OR OBSTRUCTIONS TO VISIBILITY.

COZ001>005-013-030-031-202100-
...NORTHWEST COLORADO...

CITY           SKY/WX    TMP DP  RH WIND       PRES   REMARKS
CRAIG          FAIR      39  20  46 NE5       30.09F
HAYDEN         FAIR      38  20  48 CALM      30.11F
MEEKER         FAIR      41  20  43 CALM      30.09F
RABBIT EARS PA FAIR      32  10  40 W10G22    30.13F WCI  24
STEAMBOAT SPGS FAIR      38  21  50 CALM      30.08F
WALDEN         FAIR      41   7  24 S15G23    30.07S
$$

COZ006>008-011-202100-
...WEST CENTRAL VALLEYS...

CITY           SKY/WX    TMP DP  RH WIND       PRES   REMARKS
GRAND JUNCTION FAIR      42  18  37 W3        30.17F
MONTROSE       FAIR      39  20  46 NW5       30.18F
EAGLE          FAIR      36  17  46 CALM      30.14F
RIFLE          FAIR      36  19  50 W7        30.17F
DELTA          FAIR      44  18  35 SW7       30.17F
NUCLA          CLOUDY    45   7  21 CALM      30.20F
$$

COZ017>023-064>068-202100-
...SOUTHWEST COLORADO...

CITY           SKY/WX    TMP DP  RH WIND       PRES   REMARKS
DURANGO        FAIR      47  12  24 SE6       30.14F
CORTEZ         FAIR      49   8  19 W6        30.16F
PAGOSA SPRINGS FAIR      47   8  20 SW7       30.15F
TELLURIDE      CLOUDY    47  -7  10 W8        30.21S
WOLF CREEK PAS FAIR      34   3  27 SW10      30.28S WCI  26
$$

COZ009-010-012-014-032>034-037-058>063-202100-
...CENTRAL COLORADO...

CITY           SKY/WX    TMP DP  RH WIND       PRES   REMARKS
ASPEN          FAIR      37  19  48 CALM      30.12F
BUENA VISTA    FAIR      54   9  16 W28G36    29.99F
COPPER MTN     FAIR      34   5  29 MISG      30.19F
BERTHOUD PASS  FAIR      27  14  59 NW32G47   30.16F WCI  10
COTTONWOOD PAS FAIR      48   9  20 W41G61    30.02F
GUNNISON       FAIR      30  16  56 S3        30.20F
KREMMLING      FAIR      46   9  21 SE6       30.12F
LEADVILLE      FAIR      38   1  21 NW18G25   30.14F
MONARCH PASS   FAIR      28   7  40 W37       30.29R WCI  11
SALIDA         FAIR      58   9  14 W23G37    30.04S
SUNLIGHT       FAIR      34   3  27 SW9G21    30.22F WCI  26
WILKERSON PASS FAIR      37   5  25 W20G38    30.06F
$$

COZ069>075-202100-
...SAN LUIS VALLEY/SANGRE DE CRISTO MOUNTAINS...

CITY           SKY/WX    TMP DP  RH WIND       PRES   REMARKS
ALAMOSA        FAIR      48   9  20 CALM      30.07F
DEL NORTE      FAIR      44  10  25 E7        30.10F
LA VETA PASS   FAIR      39   1  20 MISG        N/A
SAGUACHE       FAIR      46   5  18 S7        30.10F
$$

COZ035-036-038>040-202100-
...NORTHERN COLORADO FRONT RANGE...

CITY           SKY/WX    TMP DP  RH WIND       PRES   REMARKS
DENVER INTL AP PTSUNNY   67   4   8 SW12G23   29.77F
DMNS CITY PARK   N/A     66   6   9 N7G15     29.77F
AURORA         PTSUNNY   66   8  10 W18G26    29.78F
FRONT RANGE AP PTSUNNY  104   5   3 W15G23    29.79F
ERIE MUNI ARPT FAIR      70   3   7 SW5       29.78F
BOULDER MUN AP FAIR      70  12  11 E5G17     29.74F
CENTENNIAL     PTSUNNY   65   7  10 S5        29.81F
BROOMFIELD     MOSUNNY   66   7   9 W40G48    29.77F
FORT COLLINS   FAIR      67  12  12 SW8       29.73S
LONGMONT       FAIR      70   8   9 W20G30    29.74F
$$

COZ041-046-047-076>085-087-088-202100-
...PIKES PEAK/PALMER DIVIDE AND SOUTHERN FOOTHILLS...

CITY           SKY/WX    TMP DP  RH WIND       PRES   REMARKS
COLO. SPRINGS  FAIR      66   9  10 W21G32    29.84F
A. F. ACADEMY  FAIR      64   6  10 W29G38    29.83F
SCHRIEVER AFB  FAIR      66   7   9 NW14      29.84F
CHEYENNE MTN   FAIR      59   5  11 S6        29.82F
ELLICOTT         N/A    N/A N/A N/A SW10      29.82F
FALCON         FAIR      64   4   9 NW12G24   29.88F
FORT CARSON    FAIR      65  -2   6 SE12      29.82F
LIMON          FAIR      64   2   8 CALM      29.81F
MONUMENT HILL  FAIR      59   9  13 W12       29.89F
CANON CITY     FAIR      70   9   9 W14       29.82F
WALSENBURG     FAIR      64   5   9 W17G29    29.91R
TRINIDAD       FAIR      59  14  17 W9        29.88F
$$

COZ042>045-048>051-090-091-202100-
...NORTHEAST COLORADO...

CITY           SKY/WX    TMP DP  RH WIND       PRES   REMARKS
GREELEY ARPT   FAIR      64  18  17 E14       29.77F
AKRON          FAIR      65  -2   7 NW10      29.78S
BURLINGTON     FAIR      70  -2   6 SW15      29.75F
WRAY           NOT AVBL
YUMA           FAIR      68 -18   3 NW10      29.75S
STERLING       FAIR      66   9  10 SW13      29.73F
HOLYOKE        FAIR      70   5   8 W17G33    29.74R
FORT MORGAN    FAIR      67   2   7 NW6       29.78F
$$

COZ086-089-092>099-202100-
...SOUTHEAST COLORADO...

CITY           SKY/WX    TMP DP  RH WIND       PRES   REMARKS
PUEBLO         FAIR      65   8  10 SW5       29.79F
LA JUNTA       FAIR      68   5   8 W13       29.79F
LAMAR          FAIR      63  16  16 NW8       29.77F
SPRINGFIELD      N/A     70   1   6 W18       29.81F
$$




USA.gov is the U.S. government's official web portal to all federal, state and local government web resources and services.